To NAV CANADA Home Page Login to a new session Search on AWWS site Feedback and Comments Disclaimer Vers la page française équivalente Tips FAQ What's new on the site To the Forecasts and Observations / NOTAM section To "File a Flight Plan" website Publications and other links Update of the User's profile FIC Telephone Numbers My Weather Data Folder Route Weather Data Regional Weather Data Local Weather Data To the Forecasts and Observations / NOTAM section
Request Generated 08/27/2016 at 09:50:27 UTC . Weather information available at that time is displayed.

METAR/TAF

KANGIRSUK/QC    

LWIS CYAS 270900Z AUTO 28005KT 08/05 A2995=
LWIS CYAS 270800Z AUTO 28005KT 08/06 A2993=
LWIS CYAS 270700Z AUTO 27005KT 09/06 A2992=

CYAS - No TAF is issued for this station

Your time UTC time
Weather data provided by Environment Canada and NAV CANADA